METEOR 2-5 DEB, 35256

Orbit data source: Space-Track

METEOR 2-5 DEB, 35256 is space debris in LEO originally from a launch on Wed, 31 Oct 1979 UTC launched from the Plesetsk Missile And Space Complex (PKMTR). Debris objects in space refer to the collection of defunct objects orbiting the Earth. Examples of debris include non-operational satellites, rocket bodies, and fragments generated from explosions, collisions, or faulty payload assembly.

Loading next visibility...
Identifier
35256, 1979-095X
Orbit
LEO
Country
Flag of CISCIS
Related business
Manufacturer
Unknown
Mission
Spacecraft
Bus & Motor
Unknown
Mass
Unknown
Launch date (UTC)
1979-10-31 (47 years ago)
Launch vehicle
Unknown
Launch site
Plesetsk Missile And Space Complex (PKMTR)
Object type
Payload
Rocket body
Debris
Shape & HBR
Unknown shape, 0.1 m
Radar Cross Section
Small (<0.1 m²)

Expand to show TLE details & history
Last TLE update: 1 day ago

TLE from 1 day ago
0 METEOR 2-5 DEB
1 35256U 79095X   26123.03840734  .00007362  00000-0  20991-2 0  9995
2 35256  81.1825 145.8709 0008207  12.6023 347.5370 14.45138888641878
Epoch: 2026-05-03T00:55Z
TLE epoch observation values (Epoch: 2026-05-03T00:55:18.394Z)
Latitude
-0.00006°
Longitude
-88.90345°
Altitude
738.809 km
Speed
7.489 km/s
True Right ascension
09h 43m 29s
True Declination
0° 00' 00"
Sunlit
Object was in daylight at epoch
Visualization orbit readout
Latitude
Unknown
Longitude
Unknown
Altitude
Unknown
Speed
Unknown
Apparent Right ascension
Unknown
Apparent Declination
Unknown
Sunlit
N/A
Visualization observer readout
Local Sidereal Time
13:20:48
Azimuth
Unknown
Elevation
Unknown
Doppler factor
Unknown
Orbital elements
Apogee altitude
744.541 km
Perigee altitude
732.859 km
Semi-major axis
7,116.837 km
Eccentricity
0.00082
Inclination
81.1825°
RAAN
145.8709°
Arg. of periapsis
12.6023°
True anomaly
347.51668°
Mean anomaly
347.537°
Eccentric anomaly
347.52684°
Mean motion
3.61504 °/min
Orbital period
99.58 mins
BSTAR
0.0020991
Loading maneuver chart data...
Computing Atmospheric mass density...
Loading historical data...
Loading historical data...
Loading historical data...
Loading historical data...
Loading historical data...
Loading historical data...
Loading historical data...

Documentation

Showing up to 5 results
|